Regional Weather Roundup
Issued by NWS

Home | Current Version | Previous Version | Text Only | Print | Product List | Glossary Off
Versions: 1 2 3 4 5 6 7 8 9 10 11 12 13 14 15 16 17 18 19 20 21 22 23 24 25 26 27 28 29 30 31 32 33 34 35 36 37 38 39 40 41 42 43 44 45 46 47 48 49 50

044
ASUS45 KBOI 251210
RWRID

IDAHO REGIONAL WEATHER ROUNDUP
NATIONAL WEATHER SERVICE BOISE ID
600 AM MDT MON JUL 25 2016

NOTE: "FAIR" INDICATES FEW OR NO CLOUDS BELOW 12000 FEET
WITH NO SIGNIFICANT WEATHER AND/OR OBSTRUCTIONS TO VISIBILITY

IDZ012-014-251300-
SOUTHWEST IDAHO


CITY           SKY/WX    TMP DP  RH WIND       PRES   REMARKS
BOISE          CLEAR     65  36  34 SE7       30.00R
CALDWELL       NOT AVBL
MOUNTAIN HOME  CLEAR     58  34  41 E2        30.01R
$$

IDZ016-017-251300-
SOUTHCENTRAL IDAHO


CITY           SKY/WX    TMP DP  RH WIND       PRES   REMARKS
BURLEY         CLEAR     51  43  74 CALM      30.08R
JEROME         CLEAR     55  36  48 E7        30.07S
TWIN FALLS     CLEAR     60  28  29 S8        30.08R
$$

IDZ019>023-251300-
SOUTHEAST IDAHO


CITY           SKY/WX    TMP DP  RH WIND       PRES   REMARKS
IDAHO FALLS    CLEAR     42  38  85 N5        30.15R
POCATELLO      CLEAR     49  34  56 NW3       30.12S
REXBURG        CLEAR     47  42  83 NE5       30.16S
$$

IDZ006-010-011-018-031-032-251300-
CENTRAL IDAHO MOUNTAINS


CITY           SKY/WX    TMP DP  RH WIND       PRES   REMARKS
MCCALL         CLEAR     50  42  74 CALM      30.15S
HAILEY         CLEAR     52  34  50 NW9       30.19S
STANLEY        NOT AVBL
SALMON         CLEAR     52  37  58 CALM      30.10R
CHALLIS        CLEAR     52  34  50 CALM      30.15R
$$

IDZ002-004-006-007-026-251300-
NORTHERN IDAHO


CITY           SKY/WX    TMP DP  RH WIND       PRES   REMARKS
LEWISTON       CLEAR     65  47  52 CALM      29.99R
LOWELL           N/A     55  50  83 NW3       30.07R
COEUR D`ALENE  CLEAR     54  48  82 CALM      30.02S
MULLAN PASS    CLEAR     60  42  51 CALM      30.21S
$$




USA.gov is the U.S. government's official web portal to all federal, state and local government web resources and services.